Weather History for Sleetmute, AK

Change the Weather History Date:

Sunday, July 28, 2013

  Actual Average Record
Temperature  
Mean Temperature 70 °F -  
Max Temperature 82 °F 61 °F 82 °F (2013)
Min Temperature 57 °F 46 °F 39 °F (1999)
Cooling Degree Days 4    
Growing Degree Days 20 (Base 50)    
Moisture  
Dew Point 62 °F    
Average Humidity 79    
Maximum Humidity 94    
Minimum Humidity 51    
Precipitation  
Precipitation 0.11 in - - ()
Sea Level Pressure  
Sea Level Pressure 30.26 in    
Wind  
Wind Speed 0 mph (NW)    
Max Wind Speed 6 mph    
Max Gust Speed -    
Visibility 10 miles    
Events      
Averages and records for this station are not official NWS values.
T = Trace of Precipitation, MM = Missing Value Source: NWS Daily Summary

Daily Weather History Graph

Daily Weather History Graph

Search for Another Location

Airport:

Trip Planner

Search our weather history database for the weather conditions in past years. The results will help you decide how hot, cold, wet, or windy it might be!

Date:

Astronomy

Jul. 28, 2013 Rise Set
Actual Time 5:47 AM AKDT 11:20 PM AKDT
Civil Twilight 4:34 AM AKDT 12:32 AM AKDT
Nautical Twilight 3:07 AM AKDT 2:02 AM AKDT
Astronomical Twilight Sun does not rise Sun does not rise
Moon 12:00 AM AKDT (7/28) 3:09 PM AKDT (7/28)
Length of Visible Light 19h 58m
Length of Day
17h 32m
Waning Gibbous, 59% of the Moon is Illuminated
Jul 28
Waning Gibbous
Jul 29
Last Quarter
Aug 6
New
Aug 14
First Quarter
Aug 20
Full

Hourly Weather History & Observations

Time (AKDT) Temp. Heat Index Dew Point Humidity Pressure Visibility Wind Dir Wind Speed Gust Speed Precip Events Conditions
12:36 AM 62.6 °F - 59.0 °F 88% 30.27 in 10.0 mi Calm Calm - N/A   Clear
1:16 AM 62.6 °F - 57.2 °F 82% 30.28 in 10.0 mi Calm Calm - N/A   Clear
1:36 AM 62.6 °F - 57.2 °F 82% 30.28 in 10.0 mi Calm Calm - N/A   Clear
1:56 AM 62.6 °F - 57.2 °F 82% 30.28 in 10.0 mi Calm Calm - N/A   Clear
2:36 AM 60.8 °F - 57.2 °F 88% 30.29 in 10.0 mi Calm Calm - N/A   Clear
3:16 AM 60.8 °F - 57.2 °F 88% 30.29 in 10.0 mi Calm Calm - N/A   Clear
3:36 AM 59.0 °F - 55.4 °F 88% 30.29 in 10.0 mi Calm Calm - N/A   Clear
3:56 AM 59.0 °F - 55.4 °F 88% 30.29 in 10.0 mi Calm Calm - N/A   Clear
4:16 AM 59.0 °F - 57.2 °F 94% 30.29 in 10.0 mi Calm Calm - N/A   Clear
4:36 AM 59.0 °F - 57.2 °F 94% 30.29 in 10.0 mi Calm Calm - N/A   Clear
4:56 AM 59.0 °F - 57.2 °F 94% 30.29 in 10.0 mi Calm Calm - N/A   Clear
5:16 AM 57.2 °F - 55.4 °F 94% 30.29 in 10.0 mi Calm Calm - N/A   Clear
5:36 AM 57.2 °F - 55.4 °F 94% 30.29 in 9.0 mi Calm Calm - N/A   Clear
6:36 AM 60.8 °F - 59.0 °F 94% 30.29 in 10.0 mi Calm Calm - N/A   Scattered Clouds
7:16 AM 62.6 °F - 59.0 °F 88% 30.29 in 10.0 mi Calm Calm - N/A   Partly Cloudy
7:56 AM 64.4 °F - 60.8 °F 88% 30.29 in 10.0 mi Calm Calm - N/A   Clear
8:16 AM 66.2 °F - 60.8 °F 83% 30.29 in 10.0 mi Calm Calm - N/A   Partly Cloudy
8:36 AM 68.0 °F - 60.8 °F 78% 30.29 in 10.0 mi Calm Calm - N/A   Clear
8:56 AM 66.2 °F - 60.8 °F 83% 30.29 in 10.0 mi Calm Calm - N/A   Clear
9:16 AM 69.8 °F - 60.8 °F 73% 30.29 in 10.0 mi NNW 3.5 mph - N/A   Clear
9:56 AM 71.6 °F - 62.6 °F 73% 30.29 in 10.0 mi NNW 3.5 mph - N/A   Clear
10:16 AM 73.4 °F - 62.6 °F 69% 30.29 in 10.0 mi Calm Calm - N/A   Clear
10:56 AM 73.4 °F - 60.8 °F 65% 30.29 in 10.0 mi NNW 3.5 mph - N/A   Scattered Clouds
11:16 AM 73.4 °F - 62.6 °F 69% 30.29 in 10.0 mi Calm Calm - N/A   Overcast
11:36 AM 73.4 °F - 62.6 °F 69% 30.29 in 10.0 mi Calm Calm - N/A   Scattered Clouds
11:56 AM 75.2 °F - 62.6 °F 65% 30.28 in 10.0 mi Calm Calm - N/A   Clear
12:16 PM 75.2 °F - 62.6 °F 65% 30.28 in 10.0 mi Calm Calm - N/A   Mostly Cloudy
12:36 PM 75.2 °F - 62.6 °F 65% 30.28 in 10.0 mi Calm Calm - N/A   Overcast
1:16 PM 73.4 °F - 62.6 °F 69% 30.27 in 10.0 mi Calm Calm - N/A   Overcast
1:36 PM 73.4 °F - 62.6 °F 69% 30.27 in 10.0 mi Calm Calm - N/A   Overcast
2:16 PM 75.2 °F - 64.4 °F 69% 30.26 in 10.0 mi Calm Calm - N/A   Overcast
2:36 PM 78.8 °F - 62.6 °F 57% 30.25 in 10.0 mi Calm Calm - N/A   Mostly Cloudy
2:56 PM 80.6 °F 82.3 °F 64.4 °F 58% 30.25 in 10.0 mi NNE 4.6 mph - N/A   Scattered Clouds
3:16 PM 80.6 °F 81.8 °F 62.6 °F 54% 30.24 in 10.0 mi Calm Calm - N/A   Clear
3:36 PM 80.6 °F 81.8 °F 62.6 °F 54% 30.23 in 10.0 mi NNW 4.6 mph - N/A   Clear
3:56 PM 82.4 °F 83.4 °F 62.6 °F 51% 30.23 in 10.0 mi Calm Calm - N/A   Partly Cloudy
4:16 PM 77.0 °F - 60.8 °F 57% 30.23 in 10.0 mi Calm Calm - N/A   Scattered Clouds
4:36 PM 77.0 °F - 62.6 °F 61% 30.23 in 10.0 mi SW 5.8 mph - N/A   Mostly Cloudy
4:56 PM 73.4 °F - 64.4 °F 73% 30.23 in 10.0 mi Calm Calm - N/A   Overcast
5:16 PM 71.6 °F - 64.4 °F 78% 30.24 in 8.0 mi Calm Calm - N/A   Mostly Cloudy
5:36 PM 69.8 °F - 64.4 °F 83% 30.23 in 9.0 mi SW 5.8 mph - 0.06 in   Mostly Cloudy
5:56 PM 69.8 °F - 64.4 °F 83% 30.22 in 10.0 mi Calm Calm - 0.10 in   Overcast
6:16 PM 69.8 °F - 66.2 °F 88% 30.22 in 10.0 mi Calm Calm - 0.01 in   Overcast
6:36 PM 69.8 °F - 66.2 °F 88% 30.22 in 10.0 mi Calm Calm - 0.01 in   Partly Cloudy
6:56 PM 69.8 °F - 66.2 °F 88% 30.22 in 9.0 mi Calm Calm - 0.01 in   Partly Cloudy
7:16 PM 69.8 °F - 66.2 °F 88% 30.23 in 10.0 mi Calm Calm - N/A   Scattered Clouds
7:36 PM 69.8 °F - 66.2 °F 88% 30.23 in 10.0 mi Calm Calm - N/A   Mostly Cloudy
7:56 PM 69.8 °F - 66.2 °F 88% 30.23 in 10.0 mi Calm Calm - N/A   Overcast
8:16 PM 71.6 °F - 68.0 °F 88% 30.23 in 10.0 mi Calm Calm - N/A   Overcast
8:36 PM 69.8 °F - 66.2 °F 88% 30.22 in 10.0 mi Calm Calm - N/A   Mostly Cloudy
8:56 PM 71.6 °F - 68.0 °F 88% 30.22 in 10.0 mi Calm Calm - N/A   Partly Cloudy
9:16 PM 71.6 °F - 66.2 °F 83% 30.22 in 10.0 mi Calm Calm - N/A   Clear
9:36 PM 71.6 °F - 69.8 °F 94% 30.22 in 10.0 mi Calm Calm - N/A   Scattered Clouds
10:56 PM 68.0 °F - 62.6 °F 83% 30.22 in 10.0 mi Calm Calm - N/A   Clear
11:16 PM 68.0 °F - 60.8 °F 78% 30.23 in 10.0 mi Calm Calm - N/A   Clear
11:36 PM 66.2 °F - 60.8 °F 83% 30.23 in 10.0 mi Calm Calm - N/A   Clear